Beaufort, SC

11:35 PM EST on February 26, 2017 (GMT -0500)
Beaufort Marine Corps Air Station

Weather History for KNBC - September, 2014

Change the Weather History Date:

Saturday, September 27, 2014

  Actual Average Record
Temperature  
Mean Temperature 74 °F -  
Max Temperature 82 °F 83 °F 93 °F (1958)
Min Temperature 66 °F 66 °F 52 °F (1940)
Cooling Degree Days 9    
Growing Degree Days 24 (Base 50)    
Moisture  
Dew Point 67 °F    
Average Humidity 82    
Maximum Humidity 93    
Minimum Humidity 65    
Precipitation  
Precipitation 0.02 in - - ()
Sea Level Pressure  
Sea Level Pressure 30.10 in    
Wind  
Wind Speed - (North)    
Max Wind Speed -    
Max Gust Speed -    
Visibility 9 miles    
Events Rain    
Averages and records for this station are not official NWS values.
T = Trace of Precipitation, MM = Missing Value Source: NWS Daily Summary

Daily Weather History Graph

Daily Weather History Graph

Search for Another Location

Airport or City:

Trip Planner

Search our weather history database for the weather conditions in past years. The results will help you decide how hot, cold, wet, or windy it might be!

Date:

Astronomy

Sep. 27, 2014 Rise Set
Actual Time 7:14 AM EDT 7:12 PM EDT
Civil Twilight 6:49 AM EDT 7:37 PM EDT
Nautical Twilight 6:21 AM EDT 8:05 PM EDT
Astronomical Twilight 5:52 AM EDT 8:34 PM EDT
Moon 10:16 AM EDT 9:23 PM EDT
Length of Visible Light 12h 47m
Length of Day
11h 58m
Waxing Crescent, 11% of the Moon is Illuminated
Sep 27
Waxing Crescent
Oct 1
First Quarter
Oct 8
Full
Oct 15
Last Quarter
Oct 23
New

Hourly Weather History & Observations

Time (EDT) Temp. Heat Index Dew Point Humidity Pressure Visibility Wind Dir Wind Speed Gust Speed Precip Events Conditions
12:31 AM 70.0 °F - 66.0 °F 87% 30.11 in 10.0 mi North - - N/A   Overcast
12:56 AM 70.0 °F - 66.0 °F 87% 30.11 in 10.0 mi North - - N/A   Overcast
1:14 AM 70.0 °F - 66.0 °F 87% 30.11 in 10.0 mi North - - N/A   Overcast
1:56 AM 69.1 °F - 66.0 °F 90% 30.11 in 10.0 mi North - - N/A   Overcast
2:21 AM 69.1 °F - 66.0 °F 90% 30.10 in 10.0 mi North - - N/A   Overcast
2:36 AM 69.1 °F - 66.0 °F 90% 30.10 in 10.0 mi North - - N/A   Overcast
2:56 AM 69.1 °F - 66.0 °F 90% 30.09 in 10.0 mi North - - N/A   Overcast
3:11 AM 69.1 °F - 66.0 °F 90% 30.09 in 10.0 mi North - - N/A   Overcast
3:56 AM 69.1 °F - 64.9 °F 87% 30.09 in 10.0 mi North - - N/A   Overcast
4:17 AM 69.1 °F - 64.9 °F 87% 30.09 in 10.0 mi North - - N/A   Overcast
4:56 AM 69.1 °F - 64.9 °F 87% 30.09 in 10.0 mi North - - N/A   Overcast
5:56 AM 68.0 °F - 64.0 °F 87% 30.09 in 10.0 mi North - - N/A   Overcast
6:11 AM 68.0 °F - 64.0 °F 87% 30.09 in 10.0 mi North - - N/A   Overcast
6:56 AM 68.0 °F - 64.9 °F 90% 30.09 in 6.0 mi North - - N/A   Overcast
7:19 AM 68.0 °F - 64.9 °F 90% 30.09 in 7.0 mi North - - 0.01 in Rain Light Rain
7:45 AM 66.9 °F - 64.9 °F 93% 30.10 in 1.8 mi North - - 0.02 in Rain Light Rain
7:56 AM 68.0 °F - 64.9 °F 90% 30.11 in 2.0 mi North - - 0.02 in Rain Light Rain
8:09 AM 68.0 °F - 64.9 °F 90% 30.11 in 6.0 mi North - - 0.00 in   Overcast
8:56 AM 69.1 °F - 64.9 °F 87% 30.11 in 7.0 mi North - - 0.00 in   Overcast
9:56 AM 72.0 °F - 64.9 °F 78% 30.12 in 10.0 mi North - - N/A   Overcast
10:45 AM 73.9 °F - 66.0 °F 76% 30.12 in 10.0 mi North - - N/A   Overcast
10:56 AM 75.0 °F - 66.0 °F 73% 30.12 in 10.0 mi North - - N/A   Overcast
11:25 AM 77.0 °F - 66.9 °F 71% 30.12 in 10.0 mi North - - N/A   Mostly Cloudy
11:56 AM 77.0 °F - 66.9 °F 71% 30.12 in 10.0 mi North - - N/A   Overcast
12:56 PM 80.1 °F 82.7 °F 68.0 °F 67% 30.10 in 10.0 mi North - - N/A   Overcast
1:08 PM 81.0 °F 84.1 °F 69.1 °F 67% 30.10 in 10.0 mi North - - N/A   Overcast
1:56 PM 82.0 °F 85.5 °F 69.1 °F 65% 30.08 in 10.0 mi North - - N/A   Mostly Cloudy
2:03 PM 82.0 °F 85.5 °F 69.1 °F 65% 30.08 in 10.0 mi North - - N/A   Mostly Cloudy
2:56 PM 80.1 °F 83.2 °F 70.0 °F 71% 30.07 in 10.0 mi North - - N/A   Overcast
3:56 PM 80.1 °F 83.2 °F 70.0 °F 71% 30.06 in 10.0 mi North - - N/A   Overcast
4:56 PM 79.0 °F - 70.0 °F 74% 30.06 in 10.0 mi North - - N/A   Overcast
5:56 PM 77.0 °F - 69.1 °F 76% 30.06 in 10.0 mi North - - N/A   Overcast
6:56 PM 75.0 °F - 69.1 °F 82% 30.08 in 10.0 mi North - - N/A   Overcast
7:56 PM 73.9 °F - 69.1 °F 85% 30.09 in 10.0 mi North - - N/A   Overcast
8:16 PM 73.9 °F - 69.1 °F 85% 30.09 in 10.0 mi North - - N/A   Overcast
8:56 PM 73.0 °F - 68.0 °F 84% 30.10 in 10.0 mi North - - N/A   Overcast
9:35 PM 73.0 °F - 68.0 °F 84% 30.11 in 10.0 mi North - - N/A   Overcast
9:56 PM 73.0 °F - 68.0 °F 84% 30.12 in 10.0 mi North - - N/A   Overcast
10:25 PM 73.0 °F - 68.0 °F 84% 30.12 in 10.0 mi North - - N/A   Overcast
10:49 PM 73.0 °F - 68.0 °F 84% 30.12 in 10.0 mi North - - N/A   Overcast
10:56 PM 73.0 °F - 68.0 °F 84% 30.12 in 10.0 mi North - - N/A   Overcast
11:56 PM 73.0 °F - 68.0 °F 84% 30.11 in 10.0 mi North - - N/A   Overcast